sat.trackr.live / text

‹ back to catalog

ICEYE-X76

NORAD 68502 · 2026-067CQ

PAYLOAD ACTIVE UNKNOWN

§ Identity

Operator
Country
POL
Launch date
2026-03-30
Launch site
AFWTR
Launch vehicle
Mass (kg)
RCS (m²)

External: N2YO · Heavens-Above · Gunter

§ Orbital elements

Epoch: 2026-05-25T02:45:41.901120Z

Period
96.54 min
Inclination
97.7613°
Eccentricity
0.0003625
Mean motion
14.91638186 rev/d
Perigee alt
590.3 km
Apogee alt
595.4 km
Semi-major
6,971.0 km
B*
7.3412e-5
RAAN
103.7284°
Arg perigee
88.5044°
Mean anomaly
271.6590°
Rev number
828

§ Raw data

ICEYE-X761 68502U 26067CQ  26145.11506830  .00000682  00000+0  73412-4 0  99902 68502  97.7613 103.7284 0003625  88.5044 271.6590 14.91638186  8281

JSON: /api/v1/satellites/68502 · /tle

For live sub-satellite position, see the globe view (requires WebGL).

§ Visibility from observer

Set your observer location to see the next 7 days of passes ≥ 10°. The values pass through the URL so the page stays shareable.

No JS? Fill the form by hand. The geolocation button needs JavaScript.